Погода в Походске

Россия / Республика Саха (Якутия)     69°04′47″N   160°58′00″E
темп.,
°C
ветер,
м/с
пор.,
м/с
влажн.,
%
обл.,
%
осадки,
мм/ч
давл.,
гПа
погр.,
м
27 февраля, сб
сб2723:00−32ю239895 0.0 103320
02:00−32ю2299100 0.0 103319
05:00−33ю2299100 0.1 103219
08:00−34ю1299100 0.0 103319
11:00−33ююз119685 0.0 103319
14:00−31юз119799 0.0 103219
17:00−34зюз0010098 0.0 103219
20:00−34ююв0010011 0.0 103219
28 февраля, вс
вс2823:00−35юз111005 0.0 103219
02:00−35ю1110018 0.0 103219
05:00−35ююв1110032 0.0 103119
08:00−35ююв111000 0.0 103219
11:00−33юв01961 0.0 103119
14:00−31ссв11940 0.0 103019
17:00−33ссв23960 0.0 102919
20:00−33с22960 0.0 102919
1 марта, пн
пн123:00−33с12960 0.0 102819
02:00−33с11960 0.0 102619
05:00−32с22920 0.0 102419
08:00−32ссз22920 0.0 102319
11:00−30зсз11910 0.0 102219
14:00−29ссз11900 0.0 102019
17:00−31сз12920 0.0 102019
20:00−33зсз11950 0.0 102019
2 марта, вт
вт223:00−33з11980 0.0 102019
02:00−34юз22980 0.0 102019
05:00−35юз221000 0.0 102119
08:00−36юз22990 0.0 102319
11:00−34юз239614 0.0 102446
14:00−34юз229751 0.0 102541
17:00−36юз229726 0.0 102619
20:00−37ююз22970 0.0 102819
3 марта, ср
ср323:00−38ю22970 0.0 102919
02:00−38ю23961 0.0 103018
05:00−39ю22971 0.0 103118
08:00−39ю12961 0.0 103118
11:00−36в11931 0.0 103019
14:00−34ссв23930 0.0 102836
17:00−35с34960 0.0 102625
20:00−35ссв23975 0.0 102319